Location: Unspecified
(0.0000°N, 0.0000°E)
Time: 11:19:46
(UTC+00:00)

Tiros 1 despin weight - Pass Details

Date: 22 November 2019
Orbit: 594 x 642 km, 48.2° (Epoch: 07 December)

Event Time Altitude Azimuth Distance (km) Brightness Sun altitude
Rises 21:58:47 0° 283° (WNW) 2,902 - -56.8°
Reaches altitude 10° 22:02:30 10° 252° (WSW) 2,008 - -57.6°
Maximum altitude 22:04:19 12° 229° (SW) 1,876 - -57.9°
Drops below altitude 10° 22:06:08 10° 206° (SSW) 2,019 - -58.3°
Sets 22:09:55 0° 175° (S) 2,937 - -59.0°
